User: anonymous   Login
Location: Unspecified
(0.0000°N, 0.0000°E)
Time: 00:02:10
(UTC+00:00)
Language:

GOES 1 - Orbit

View from above orbital plane
View from above orbital plane
View from above satellite
View from above satellite

Ground track
Ground track

The orbit data is extracted from the following two-line orbital elements,

1 08366U 75100A   24176.55092402 -.00000048  00000-0  00000-0 0  9996
2 08366   6.4467 286.4430 0001914 282.4609 151.9851  1.00316041177826
Epoch (UTC): 24 June 2024 13:13:19
Eccentricity: 0.0001914
inclination: 6.4467°
perigee height: 35766 km
apogee height: 35782 km
right ascension of ascending node: 286.4430°
argument of perigee: 282.4609°
revolutions per day: 1.00316041
mean anomaly at epoch: 151.9851°
orbit number at epoch: 17782

The dashed part of the orbit path shows where the satellite is in the earth's shadow,  

DLR